Regional Weather Roundup
Issued by NWS State College, PA

Home | Current Version | Previous Version | Text Only | Print | Product List | Glossary Off
Versions: 1 2 3 4 5 6 7 8 9 10 11 12 13 14 15 16 17 18 19 20 21 22 23 24 25 26 27 28 29 30 31 32 33 34 35 36 37 38 39 40 41 42 43 44 45 46 47 48 49 50

000
ASUS41 KCTP 091703
RWRCTP

REGIONAL WEATHER ROUNDUP
NATIONAL WEATHER SERVICE STATE COLLEGE PA
1200 PM EST TUE FEB 09 2016

Note: "fair" indicates few or no clouds below 12,000 feet with no
significant weather and/or obstructions to visibility.

* = STATION THAT DOES NOT REPORT PRECIPITATION /E.G. RAIN...SNOW...ETC/
    THUNDER OR FOG.

PAZ002>004-007>009-013>016-020>023-029>032-091800-
WESTERN PENNSYLVANIA

CITY           SKY/WX    TMP DP  RH WIND       PRES   REMARKS
ERIE           CLOUDY    33  27  78 W12       29.55S
MEADVILLE      CLOUDY    32  24  72 SW10      29.53S
FRANKLIN*      CLOUDY    30  25  80 W8        29.54S
NEW CASTLE     CLOUDY    33  24  69 W10       29.57S
BEAVER COUNTY  CLOUDY    32  27  80 W7G16     29.56S HAZE
BUTLER*        CLOUDY    32  28  86 W10       29.58S
PITTSBURGH INT LGT SNOW  28  24  85 SW13      29.57R FOG
PITTSBURGH     LGT SNOW  29  24  82 W15       29.57R
INDIANA*       CLOUDY    28  28 100 SW15      29.56S FOG
LATROBE        LGT SNOW  27  25  93 SW20G29   29.58S VSB 1   WCI  13
WASHINGTON CO* CLOUDY    27  21  80 SW16      29.60S WCI  14
$$

PAZ004>006-010>012-017>019-024>028-033>037-041-042-045-046-049>053-091800-
CENTRAL PENNSYLVANIA

CITY           SKY/WX    TMP DP  RH WIND       PRES   REMARKS
BRADFORD       CLOUDY    32  26  78 NW10      29.46F
DUBOIS         CLOUDY    32  28  85 W7        29.48F FOG
CLEARFIELD     SNOW      33  29  85 S5        29.50F VSB 1/2
JOHNSTOWN      SNOW      26  22  84 SW13      29.47F VSB 1/2 WCI  15
ALTOONA        LGT SNOW  32  29  88 NW6       29.50F VSB 1
STATE COLLEGE  LGT SNOW  30  30 100 CALM      29.52F VSB 1
WILLIAMSPORT   LGT SNOW  34  28  79 NE8       29.56F
SELINSGROVE    LGT SNOW  32  29  88 CALM      29.58F FOG
FT INDIANTOWN  LGT SNOW  29  29 100 NE6       29.56F VSB 3/4
CAPITAL CITY   HVY SNOW  31  28  89 E6        29.57F VSB 1/4
HARRISBURG     SNOW      31  29  92 CALM      29.57F VSB 1/4
YORK           LGT SNOW  31  29  92 N5        29.56F VSB 3/4
$$

PAZ038>040-043-044-047-048-054-055-060>062-067>071-091800-
EASTERN PENNSYLVANIA

CITY           SKY/WX    TMP DP  RH WIND       PRES   REMARKS
SCRANTON       CLOUDY    33  24  69 SW6       29.53F
MOUNT POCONO   CLOUDY    25  21  85 CALM      29.49F
ALLENTOWN      CLOUDY    32  24  72 E3        29.58F
QUAKERTOWN*    CLOUDY    32  27  80 E5        29.58F
READING        CLOUDY    32  26  78 NE5       29.57F
LANCASTER      LGT SNOW  30  29  96 E6        29.56F VSB 3/4
COATESVILLE    LGT SNOW  30  30 100 CALM      29.57F
POTTSTOWN      CLOUDY    32  27  81 VRB6      29.59F
BLUE BELL        N/A     32  28  86 CALM      29.58F
DOYLESTOWN     CLOUDY    30  25  81 NE6       29.57F
WILLOW GROVE   NOT AVBL
NORTH PHILA    CLOUDY    34  28  79 NE8       29.60F
PHILADELPHIA   CLOUDY    35  29  78 E8        29.60F
$$



USA.gov is the U.S. government's official web portal to all federal, state and local government web resources and services.